Powrót do katalogu

STARLINK-31520

AktywnyŁącznośćVLEO
NORAD 59210·PAYLOAD·🇺🇸 United States

Wystrzelony Mar 11, 2024 z Vandenberg Space Force Base

Loading…

Następne Przeloty (najbliższe 24 godziny)

TLE

ŚwieżeSource: CelesTrak SupGP

Epoka: Sep 15, 2026, 01:46 UTC

1 59210C 24046K   26258.07409722  .00054643  00000+0  16147-2 0  2587
2 59210  53.1586 354.7723 0001099  91.2334  58.3473 15.34358219    11

Śledź STARLINK-31520 w czasie rzeczywistym z AllMySat

Download on the App Store